EW9274 Weather Reports


Display with metric or nautical units.
time (UTC)temp
F
wind
direction
speed
MPH
gust
MPH
rain 1hr
in
rain 24hr
in
rain mn
in
humidity
%
barometer
mb
20260504200512 79 126 9.0 31.0 0.00 0.00 0.00 27 997.3
20260504200016 79 244 17.0 24.0 0.00 0.00 0.00 26 997.4
20260504195509 79 276 14.0 26.0 0.00 0.00 0.00 27 997.4
20260504195010 79 304 14.0 27.0 0.00 0.00 0.00 26 997.5
20260504194514 78 189 12.0 32.0 0.00 0.00 0.00 27 997.4
20260504194006 79 256 12.0 32.0 0.00 0.00 0.00 26 997.5
20260504193510 78 219 11.0 24.0 0.00 0.00 0.00 26 997.6
20260504193022 78 222 9.0 30.0 0.00 0.00 0.00 27 997.6
20260504192511 78 215 9.0 30.0 0.00 0.00 0.00 27 997.7
20260504192014 78 245 9.0 24.0 0.00 0.00 0.00 26 997.7
20260504191529 78 342 10.0 25.0 0.00 0.00 0.00 27 997.6
20260504191008 77 170 13.0 25.0 0.00 0.00 0.00 26 997.7
20260504190509 77 253 11.0 22.0 0.00 0.00 0.00 26 997.8
20260504190035 77 235 10.0 23.0 0.00 0.00 0.00 26 997.8
20260504185511 78 223 6.0 23.0 0.00 0.00 0.00 27 997.7
20260504185012 78 192 6.0 26.0 0.00 0.00 0.00 26 997.8
20260504184520 77 217 12.0 26.0 0.00 0.00 0.00 26 997.9
20260504184012 77 262 9.0 24.0 0.00 0.00 0.00 27 997.8
20260504183514 77 105 10.0 24.0 0.00 0.00 0.00 27 997.9
20260504183022 77 219 8.0 21.0 0.00 0.00 0.00 27 997.9
20260504182509 77 248 11.0 20.0 0.00 0.00 0.00 27 998.0
20260504182013 78 236 7.0 22.0 0.00 0.00 0.00 26 998.1
20260504181530 77 247 12.0 24.0 0.00 0.00 0.00 26 998.0
20260504181009 78 236 15.0 24.0 0.00 0.00 0.00 26 998.1
20260504180514 77 150 5.0 23.0 0.00 0.00 0.00 27 998.1
20260504180033 77 190 10.0 23.0 0.00 0.00 0.00 27 998.1
20260504175508 77 289 9.0 18.0 0.00 0.00 0.00 27 998.1
20260504175011 76 192 9.0 25.0 0.00 0.00 0.00 27 998.1
20260504174523 76 247 7.0 25.0 0.00 0.00 0.00 27 998.1
20260504174009 76 163 9.0 25.0 0.00 0.00 0.00 27 998.3
20260504173509 76 134 8.0 22.0 0.00 0.00 0.00 27 998.3
20260504173025 76 186 9.0 21.0 0.00 0.00 0.00 27 998.3
20260504172509 76 263 8.0 19.0 0.00 0.00 0.00 27 998.4
20260504172015 76 213 12.0 22.0 0.00 0.00 0.00 26 998.4
20260504171537 75 247 11.0 23.0 0.00 0.00 0.00 27 998.5
20260504171010 75 236 8.0 23.0 0.00 0.00 0.00 26 998.6
20260504170502 75 254 9.0 22.0 0.00 0.00 0.00 27 998.8
20260504151006 71 186 11.0 21.0 0.00 0.00 0.00 30 1000.4
20260504150503 71 249 8.0 19.0 0.00 0.00 0.00 31 1000.5
20260504141002 67 245 7.0 15.0 0.00 0.00 0.00 36 1001.1
20260504140502 67 204 5.0 13.0 0.00 0.00 0.00 37 1001.2
20260504130509 58 232 1.0 6.0 0.00 0.00 0.00 56 1001.9
20260504110502 45 223 1.0 2.0 0.00 0.00 0.00 80 1002.1
20260504100502 44 250 0.0 2.0 0.00 0.00 0.00 81 1002.2
20260504082003 46 232 0.0 2.0 0.00 0.00 0.00 82 1003.3
20260504081527 46 232 1.0 2.0 0.00 0.00 0.00 82 1003.4
20260504081003 46 232 0.0 2.0 0.00 0.00 0.00 81 1003.4
20260504080503 46 232 1.0 2.0 0.00 0.00 0.00 81 1003.3
20260504050506 50 250 1.0 2.0 0.00 0.00 0.00 76 1004.6
20260504045505 51 250 1.0 2.0 0.00 0.00 0.00 75 1004.7
20260504045009 51 250 0.0 2.0 0.00 0.00 0.00 74 1004.7
20260504044538 51 250 1.0 2.0 0.00 0.00 0.00 74 1004.7
20260504044005 51 250 1.0 2.0 0.00 0.00 0.00 75 1004.7
20260504043509 51 250 0.0 2.0 0.00 0.00 0.00 74 1004.7
20260504043016 51 250 0.0 2.0 0.00 0.00 0.00 74 1004.6
20260504042506 51 250 0.0 2.0 0.00 0.00 0.00 73 1004.7
20260504042010 52 250 0.0 2.0 0.00 0.00 0.00 73 1004.7
20260504041515 52 250 0.0 2.0 0.00 0.00 0.00 72 1004.7
20260504041006 52 250 0.0 2.0 0.00 0.00 0.00 71 1004.6
20260504040507 52 250 0.0 2.0 0.00 0.00 0.00 71 1004.6
20260504040017 52 250 0.0 2.0 0.00 0.00 0.00 72 1004.8
20260504035507 53 250 0.0 2.0 0.00 0.00 0.00 70 1004.7
20260504035011 53 250 0.0 2.0 0.00 0.00 0.00 70 1004.6
20260504034516 53 250 0.0 2.0 0.00 0.00 0.00 70 1004.7
20260504034007 53 250 0.0 2.0 0.00 0.00 0.00 70 1004.7
20260504033508 53 250 0.0 2.0 0.00 0.00 0.00 69 1004.8
20260504033022 54 250 0.0 2.0 0.00 0.00 0.00 68 1004.7
20260504032507 54 250 0.0 2.0 0.00 0.00 0.00 68 1004.7
20260504032015 54 250 0.0 2.0 0.00 0.00 0.00 68 1004.8
20260504031520 54 250 0.0 2.0 0.00 0.00 0.00 67 1004.8
20260504031006 55 250 0.0 2.0 0.00 0.00 0.00 66 1004.8
20260504030511 55 250 0.0 2.0 0.00 0.00 0.00 66 1004.8
20260504030036 55 250 0.0 2.0 0.00 0.00 0.00 65 1004.8
20260504025507 55 250 0.0 2.0 0.00 0.00 0.00 66 1004.8
20260504025010 56 250 0.0 2.0 0.00 0.00 0.00 64 1004.7
20260504024521 56 250 0.0 2.0 0.00 0.00 0.00 63 1004.7
20260504024010 56 250 0.0 2.0 0.00 0.00 0.00 63 1004.7
20260504023511 56 250 0.0 2.0 0.00 0.00 0.00 62 1004.7
20260504023028 56 250 0.0 2.0 0.00 0.00 0.00 62 1004.7
20260504022509 57 250 0.0 2.0 0.00 0.00 0.00 62 1004.7
20260504022013 57 250 0.0 2.0 0.00 0.00 0.00 63 1004.7
20260504021527 57 250 0.0 2.0 0.00 0.00 0.00 61 1004.7
20260504021006 57 250 0.0 1.0 0.00 0.00 0.00 60 1004.6
20260504020502 58 250 0.0 2.0 0.00 0.00 0.00 59 1004.6
20260504020006 58 250 0.0 2.0 0.00 0.00 0.00 58 1004.6
20260504015502 59 250 0.0 2.0 0.00 0.00 0.00 57 1004.6
20260504015004 59 250 0.0 2.0 0.00 0.00 0.00 57 1004.5
20260504014504 59 250 0.0 2.0 0.00 0.00 0.00 57 1004.4
20260504014003 60 250 0.0 2.0 0.00 0.00 0.00 55 1004.4
20260504013505 60 250 0.0 2.0 0.00 0.00 0.00 54 1004.5
20260504013004 61 250 0.0 2.0 0.00 0.00 0.00 53 1004.5
20260504012508 61 250 0.0 2.0 0.00 0.00 0.00 52 1004.6
20260504012004 62 250 0.0 2.0 0.00 0.00 0.00 51 1004.5
20260504011504 62 250 0.0 2.0 0.00 0.00 0.00 49 1004.5
20260504011005 63 250 0.0 2.0 0.00 0.00 0.00 47 1004.5
20260504010501 64 250 0.0 2.0 0.00 0.00 0.00 47 1004.5
20260504010004 64 250 0.0 4.0 0.00 0.00 0.00 46 1004.5
20260504005504 64 250 0.0 4.0 0.00 0.00 0.00 45 1004.5
20260504005003 65 205 0.0 2.0 0.00 0.00 0.00 44 1004.5
20260504004503 65 247 1.0 5.0 0.00 0.00 0.00 44 1004.5
20260504004004 65 248 1.0 6.0 0.00 0.00 0.00 43 1004.4
20260504003502 66 199 1.0 7.0 0.00 0.00 0.00 43 1004.2
20260504003004 66 259 3.0 7.0 0.00 0.00 0.00 43 1004.2
20260504002503 66 257 2.0 13.0 0.00 0.00 0.00 42 1004.1
20260504002003 66 244 4.0 13.0 0.00 0.00 0.00 41 1004.2
20260504001507 67 252 7.0 13.0 0.00 0.00 0.00 40 1004.2
20260504001005 67 244 4.0 13.0 0.00 0.00 0.00 41 1004.2
20260504000501 67 218 6.0 13.0 0.00 0.00 0.00 40 1004.2
20260504000016 67 200 4.0 15.0 0.00 0.00 0.00 40 1004.2
20260503235504 67 232 9.0 15.0 0.00 0.00 0.00 39 1004.2
20260503235004 68 252 2.0 14.0 0.00 0.00 0.00 40 1004.2
20260503234525 68 244 9.0 14.0 0.00 0.00 0.00 39 1004.2
20260503234005 68 36 9.0 17.0 0.00 0.00 0.00 39 1004.2
20260503233504 68 252 8.0 17.0 0.00 0.00 0.00 39 1004.2
20260503233012 68 242 9.0 19.0 0.00 0.00 0.00 39 1004.3
20260503232506 68 275 8.0 19.0 0.00 0.00 0.00 39 1004.3
20260503232002 68 198 9.0 18.0 0.00 0.00 0.00 39 1004.3
20260503231516 68 225 7.0 19.0 0.00 0.00 0.00 38 1004.3
20260503231006 68 329 8.0 19.0 0.00 0.00 0.00 38 1004.3
20260503230506 68 235 9.0 24.0 0.00 0.00 0.00 38 1004.3
20260503230012 68 253 7.0 24.0 0.00 0.00 0.00 38 1004.5
20260503225505 69 226 8.0 22.0 0.00 0.00 0.00 38 1004.4
20260503225003 68 236 2.0 22.0 0.00 0.00 0.00 39 1004.4
20260503224517 68 254 11.0 21.0 0.00 0.00 0.00 39 1004.5
20260503224002 68 259 11.0 21.0 0.00 0.00 0.00 39 1004.5
20260503223502 68 231 9.0 23.0 0.00 0.00 0.00 39 1004.6
20260503223016 68 360 12.0 23.0 0.00 0.00 0.00 39 1004.6
20260503222503 68 257 8.0 19.0 0.00 0.00 0.00 39 1004.6
20260503222004 68 211 8.0 20.0 0.00 0.00 0.00 39 1004.7
20260503221516 68 223 6.0 20.0 0.00 0.00 0.00 39 1004.8
20260503221010 68 306 7.0 17.0 0.00 0.00 0.00 39 1004.9
20260503220503 68 277 8.0 18.0 0.00 0.00 0.00 39 1004.9
20260503220037 68 76 4.0 18.0 0.00 0.00 0.00 40 1004.9
20260503215507 67 215 8.0 19.0 0.00 0.00 0.00 39 1004.9
20260503215002 67 36 7.0 25.0 0.00 0.00 0.00 39 1005.0
20260503214519 67 252 13.0 25.0 0.00 0.00 0.00 39 1004.9
20260503214003 67 218 11.0 25.0 0.00 0.00 0.00 38 1004.8
20260503213505 68 245 6.0 25.0 0.00 0.00 0.00 40 1005.0
20260503213024 67 259 12.0 25.0 0.00 0.00 0.00 38 1005.1
20260503212502 68 210 9.0 19.0 0.00 0.00 0.00 39 1005.1
20260503212006 67 267 10.0 22.0 0.00 0.00 0.00 39 1005.1
20260503211521 67 273 8.0 28.0 0.00 0.00 0.00 39 1005.0
20260503211003 67 234 10.0 28.0 0.00 0.00 0.00 39 1005.0
20260503210505 68 252 13.0 26.0 0.00 0.00 0.00 39 1005.1
20260503210020 67 192 5.0 26.0 0.00 0.00 0.00 40 1005.1
20260503205503 67 305 13.0 26.0 0.00 0.00 0.00 39 1005.3
20260503205008 67 271 11.0 22.0 0.00 0.00 0.00 38 1005.4
20260503204521 68 232 7.0 18.0 0.00 0.00 0.00 40 1005.5
20260503204003 67 245 5.0 18.0 0.00 0.00 0.00 43 1005.6
20260503203505 66 237 9.0 25.0 0.00 0.00 0.00 43 1005.7
20260503203029 66 193 8.0 25.0 0.00 0.00 0.00 43 1005.6
20260503202503 66 143 12.0 21.0 0.00 0.00 0.00 44 1005.8
20260503202009 66 302 5.0 21.0 0.00 0.00 0.00 45 1006.0
20260503201521 65 253 8.0 24.0 0.00 0.00 0.00 46 1006.1
20260503201011 64 166 13.0 25.0 0.00 0.00 0.00 45 1006.2